| time (UTC) | temp F | wind direction | speed knots | gust knots | rain 1hr in | rain 24hr in | rain mn in | humidity % | barometer mb |
| 20260510104535 | 74 | 0 | 0.0 | 0.9 | 0.00 | 0.00 | 0.00 | 94 | 1011.5 |
| 20260510104021 | 74 | 0 | 0.0 | 0.0 | 0.00 | 0.00 | 0.00 | 94 | 1011.5 |
| 20260510103519 | 74 | 0 | 0.0 | 0.0 | 0.00 | 0.00 | 0.00 | 94 | 1011.4 |
| 20260510103043 | 74 | 0 | 0.0 | 0.0 | 0.00 | 0.00 | 0.00 | 93 | 1011.3 |
| 20260510102521 | 74 | 0 | 0.0 | 0.0 | 0.00 | 0.00 | 0.00 | 93 | 1011.2 |
| 20260510102018 | 74 | 0 | 0.0 | 0.0 | 0.00 | 0.00 | 0.00 | 93 | 1011.3 |
| 20260510101533 | 74 | 0 | 0.0 | 0.0 | 0.00 | 0.00 | 0.00 | 93 | 1011.2 |
| 20260510101019 | 74 | 0 | 0.0 | 0.0 | 0.00 | 0.00 | 0.00 | 93 | 1011.2 |
| 20260510100519 | 74 | 0 | 0.0 | 0.0 | 0.00 | 0.00 | 0.00 | 93 | 1011.1 |
| 20260510100037 | 74 | 0 | 0.0 | 0.9 | 0.00 | 0.00 | 0.00 | 93 | 1011.1 |
| 20260510095518 | 74 | 0 | 0.0 | 0.9 | 0.00 | 0.00 | 0.00 | 93 | 1011.0 |
| 20260510095018 | 74 | 0 | 0.0 | 0.9 | 0.00 | 0.00 | 0.00 | 93 | 1011.0 |
| 20260510094543 | 74 | 0 | 0.0 | 0.9 | 0.00 | 0.00 | 0.00 | 93 | 1011.0 |
| 20260510094018 | 74 | 0 | 0.0 | 0.9 | 0.00 | 0.00 | 0.00 | 93 | 1011.2 |
| 20260510093518 | 74 | 0 | 0.0 | 0.9 | 0.00 | 0.00 | 0.00 | 93 | 1011.2 |
| 20260510093035 | 74 | 0 | 0.0 | 1.7 | 0.00 | 0.00 | 0.00 | 93 | 1011.1 |
| 20260510092518 | 74 | 0 | 0.0 | 1.7 | 0.00 | 0.00 | 0.00 | 93 | 1011.1 |
| 20260510092021 | 74 | 0 | 0.0 | 0.9 | 0.00 | 0.00 | 0.00 | 93 | 1011.2 |
| 20260510091537 | 74 | 0 | 0.0 | 0.9 | 0.00 | 0.00 | 0.00 | 93 | 1011.4 |
| 20260510091019 | 74 | 0 | 0.0 | 0.9 | 0.00 | 0.00 | 0.00 | 94 | 1011.4 |
| 20260510090519 | 74 | 0 | 0.0 | 0.9 | 0.00 | 0.00 | 0.00 | 94 | 1011.4 |
| 20260510090040 | 74 | 0 | 0.0 | 0.9 | 0.00 | 0.00 | 0.00 | 94 | 1011.5 |
| 20260510085519 | 74 | 0 | 0.0 | 0.9 | 0.00 | 0.00 | 0.00 | 94 | 1011.5 |
| 20260510085018 | 74 | 252 | 0.0 | 0.0 | 0.00 | 0.00 | 0.00 | 94 | 1011.6 |
| 20260510084549 | 74 | 0 | 0.0 | 0.0 | 0.00 | 0.00 | 0.00 | 94 | 1011.5 |
| 20260510084019 | 74 | 0 | 0.0 | 0.0 | 0.00 | 0.00 | 0.00 | 94 | 1011.5 |
| 20260510083521 | 74 | 0 | 0.0 | 0.0 | 0.00 | 0.00 | 0.00 | 94 | 1011.5 |
| 20260510083038 | 74 | 0 | 0.0 | 0.9 | 0.00 | 0.00 | 0.00 | 94 | 1011.4 |
| 20260510082519 | 74 | 0 | 0.0 | 0.9 | 0.00 | 0.00 | 0.00 | 94 | 1011.4 |
| 20260510082022 | 74 | 0 | 0.0 | 0.9 | 0.00 | 0.00 | 0.00 | 94 | 1011.4 |
| 20260510081536 | 74 | 0 | 0.0 | 0.9 | 0.00 | 0.00 | 0.00 | 93 | 1011.3 |
| 20260510081019 | 74 | 0 | 0.0 | 0.0 | 0.00 | 0.00 | 0.00 | 93 | 1011.3 |
| 20260510080520 | 74 | 0 | 0.0 | 0.0 | 0.00 | 0.00 | 0.00 | 93 | 1011.3 |
| 20260510080038 | 74 | 0 | 0.0 | 0.9 | 0.00 | 0.00 | 0.00 | 93 | 1011.2 |
| 20260510075522 | 74 | 0 | 0.0 | 0.9 | 0.00 | 0.00 | 0.00 | 93 | 1011.2 |
| 20260510075019 | 74 | 0 | 0.0 | 0.9 | 0.00 | 0.00 | 0.00 | 93 | 1011.2 |
| 20260510074552 | 74 | 0 | 0.0 | 0.9 | 0.00 | 0.00 | 0.00 | 92 | 1011.1 |
| 20260510074021 | 74 | 0 | 0.0 | 0.9 | 0.00 | 0.00 | 0.00 | 92 | 1011.1 |
| 20260510073523 | 74 | 0 | 0.0 | 0.9 | 0.00 | 0.00 | 0.00 | 92 | 1011.2 |
| 20260510073043 | 74 | 0 | 0.0 | 0.0 | 0.00 | 0.00 | 0.00 | 92 | 1011.2 |
| 20260510072520 | 74 | 0 | 0.0 | 0.0 | 0.00 | 0.00 | 0.00 | 92 | 1011.2 |
| 20260510072024 | 75 | 0 | 0.0 | 0.0 | 0.00 | 0.00 | 0.00 | 92 | 1011.2 |
| 20260510071544 | 75 | 0 | 0.0 | 0.9 | 0.00 | 0.00 | 0.00 | 92 | 1011.3 |
| 20260510071018 | 75 | 0 | 0.0 | 0.9 | 0.00 | 0.00 | 0.00 | 92 | 1011.3 |
| 20260510070522 | 75 | 0 | 0.0 | 0.9 | 0.00 | 0.00 | 0.00 | 92 | 1011.3 |
| 20260510070035 | 75 | 0 | 0.0 | 0.9 | 0.00 | 0.00 | 0.00 | 92 | 1011.4 |
| 20260510065519 | 75 | 0 | 0.0 | 0.9 | 0.00 | 0.00 | 0.00 | 92 | 1011.4 |
| 20260510065019 | 75 | 0 | 0.0 | 0.9 | 0.00 | 0.00 | 0.00 | 92 | 1011.3 |
| 20260510064542 | 75 | 279 | 0.0 | 0.9 | 0.00 | 0.00 | 0.00 | 92 | 1011.3 |
| 20260510064023 | 75 | 0 | 0.0 | 0.9 | 0.00 | 0.00 | 0.00 | 92 | 1011.2 |
| 20260510063519 | 75 | 0 | 0.0 | 0.9 | 0.00 | 0.00 | 0.00 | 92 | 1011.3 |
| 20260510063033 | 75 | 0 | 0.0 | 0.9 | 0.00 | 0.00 | 0.00 | 92 | 1011.4 |
| 20260510062518 | 75 | 0 | 0.0 | 0.0 | 0.00 | 0.00 | 0.00 | 92 | 1011.4 |
| 20260510062018 | 75 | 0 | 0.0 | 0.0 | 0.00 | 0.00 | 0.00 | 92 | 1011.5 |
| 20260510061537 | 75 | 0 | 0.0 | 0.0 | 0.00 | 0.00 | 0.00 | 92 | 1011.5 |
| 20260510061021 | 75 | 0 | 0.0 | 0.9 | 0.00 | 0.00 | 0.00 | 92 | 1011.6 |
| 20260510060521 | 75 | 0 | 0.0 | 0.9 | 0.00 | 0.00 | 0.00 | 92 | 1011.6 |
| 20260510060038 | 76 | 0 | 0.0 | 0.0 | 0.00 | 0.00 | 0.00 | 92 | 1011.7 |
| 20260510055518 | 76 | 0 | 0.0 | 0.0 | 0.00 | 0.00 | 0.00 | 92 | 1011.6 |
| 20260510055019 | 76 | 0 | 0.0 | 0.9 | 0.00 | 0.00 | 0.00 | 91 | 1011.7 |
| 20260510054535 | 76 | 0 | 0.0 | 0.9 | 0.00 | 0.00 | 0.00 | 91 | 1011.7 |
| 20260510054019 | 76 | 0 | 0.0 | 0.0 | 0.00 | 0.00 | 0.00 | 91 | 1011.7 |
| 20260510053519 | 76 | 0 | 0.0 | 0.9 | 0.00 | 0.00 | 0.00 | 91 | 1011.8 |
| 20260510053041 | 76 | 0 | 0.0 | 0.9 | 0.00 | 0.00 | 0.00 | 91 | 1011.9 |
| 20260510052519 | 76 | 73 | 0.0 | 0.9 | 0.00 | 0.00 | 0.00 | 91 | 1011.9 |
| 20260510052019 | 76 | 0 | 0.0 | 0.9 | 0.00 | 0.00 | 0.00 | 91 | 1011.9 |
| 20260510051541 | 76 | 69 | 0.0 | 1.7 | 0.00 | 0.00 | 0.00 | 91 | 1011.9 |
| 20260510051018 | 76 | 79 | 0.0 | 1.7 | 0.00 | 0.00 | 0.00 | 90 | 1011.9 |
| 20260510050521 | 76 | 0 | 0.0 | 2.6 | 0.00 | 0.00 | 0.00 | 90 | 1011.9 |
| 20260510050039 | 77 | 0 | 0.0 | 2.6 | 0.00 | 0.00 | 0.00 | 90 | 1012.0 |
| 20260510045521 | 77 | 0 | 0.0 | 2.6 | 0.00 | 0.00 | 0.00 | 89 | 1012.1 |
| 20260510045021 | 77 | 66 | 0.0 | 1.7 | 0.00 | 0.00 | 0.00 | 89 | 1012.1 |
| 20260510044540 | 77 | 0 | 0.0 | 1.7 | 0.00 | 0.00 | 0.00 | 89 | 1012.2 |
| 20260510044018 | 77 | 0 | 0.0 | 1.7 | 0.00 | 0.00 | 0.00 | 88 | 1012.3 |
| 20260510043518 | 77 | 0 | 0.0 | 1.7 | 0.00 | 0.00 | 0.00 | 88 | 1012.5 |
| 20260510043044 | 77 | 0 | 0.0 | 1.7 | 0.00 | 0.00 | 0.00 | 88 | 1012.4 |
| 20260510042520 | 77 | 58 | 0.0 | 1.7 | 0.00 | 0.00 | 0.00 | 87 | 1012.4 |
| 20260510042021 | 77 | 0 | 0.0 | 1.7 | 0.00 | 0.00 | 0.00 | 87 | 1012.3 |
| 20260510041544 | 77 | 0 | 0.0 | 1.7 | 0.00 | 0.00 | 0.00 | 87 | 1012.2 |
| 20260510041019 | 77 | 0 | 0.0 | 0.9 | 0.00 | 0.00 | 0.00 | 88 | 1012.0 |
| 20260510040519 | 78 | 0 | 0.0 | 1.7 | 0.00 | 0.00 | 0.00 | 87 | 1011.9 |
| 20260510040037 | 78 | 0 | 0.0 | 1.7 | 0.00 | 0.00 | 0.00 | 87 | 1011.9 |
| 20260510035519 | 78 | 0 | 0.0 | 1.7 | 0.00 | 0.00 | 0.00 | 87 | 1012.1 |
| 20260510035019 | 78 | 0 | 0.0 | 1.7 | 0.00 | 0.00 | 0.00 | 86 | 1012.1 |
| 20260510034536 | 78 | 46 | 0.0 | 1.7 | 0.00 | 0.00 | 0.00 | 86 | 1012.0 |
| 20260510034019 | 78 | 0 | 0.0 | 3.5 | 0.00 | 0.00 | 0.00 | 85 | 1012.2 |
| 20260510033518 | 79 | 0 | 0.0 | 3.5 | 0.00 | 0.00 | 0.00 | 85 | 1012.2 |
| 20260510033036 | 79 | 37 | 0.0 | 4.3 | 0.00 | 0.00 | 0.00 | 84 | 1012.1 |
| 20260510032519 | 79 | 55 | 0.9 | 4.3 | 0.00 | 0.00 | 0.00 | 83 | 1012.3 |
| 20260510032019 | 79 | 0 | 0.9 | 4.3 | 0.00 | 0.00 | 0.00 | 81 | 1012.3 |
| 20260510031535 | 79 | 0 | 0.9 | 4.3 | 0.00 | 0.00 | 0.00 | 79 | 1012.1 |
| 20260510031020 | 79 | 0 | 0.0 | 1.7 | 0.00 | 0.00 | 0.00 | 77 | 1012.1 |
| 20260510030522 | 79 | 0 | 0.0 | 2.6 | 0.00 | 0.00 | 0.00 | 76 | 1012.0 |
| 20260510030033 | 79 | 0 | 0.0 | 2.6 | 0.00 | 0.00 | 0.00 | 76 | 1012.0 |
| 20260510025519 | 79 | 94 | 0.0 | 1.7 | 0.00 | 0.00 | 0.00 | 75 | 1011.9 |
| 20260510025021 | 79 | 80 | 0.0 | 1.7 | 0.00 | 0.00 | 0.00 | 75 | 1011.9 |
| 20260510024547 | 79 | 0 | 0.0 | 1.7 | 0.00 | 0.00 | 0.00 | 74 | 1011.7 |
| 20260510024020 | 79 | 0 | 0.0 | 0.9 | 0.00 | 0.00 | 0.00 | 73 | 1011.5 |
| 20260510023518 | 79 | 0 | 0.0 | 0.9 | 0.00 | 0.00 | 0.00 | 73 | 1011.3 |
| 20260510023035 | 79 | 0 | 0.0 | 5.2 | 0.00 | 0.00 | 0.00 | 73 | 1011.3 |
| 20260510022521 | 79 | 0 | 0.0 | 5.2 | 0.00 | 0.00 | 0.00 | 73 | 1011.2 |
| 20260510022021 | 78 | 85 | 0.0 | 2.6 | 0.00 | 0.00 | 0.00 | 75 | 1011.0 |
| 20260510021535 | 77 | 0 | 0.0 | 0.9 | 0.00 | 0.00 | 0.00 | 76 | 1010.8 |
| 20260510021019 | 77 | 0 | 0.0 | 0.9 | 0.00 | 0.00 | 0.00 | 77 | 1010.6 |
| 20260510020518 | 76 | 0 | 0.0 | 0.9 | 0.00 | 0.00 | 0.00 | 78 | 1010.5 |
| 20260510020035 | 76 | 0 | 0.0 | 0.0 | 0.00 | 0.00 | 0.00 | 79 | 1010.2 |
| 20260510015520 | 76 | 0 | 0.0 | 0.0 | 0.00 | 0.00 | 0.00 | 81 | 1010.2 |
| 20260510015020 | 76 | 0 | 0.0 | 0.0 | 0.00 | 0.00 | 0.00 | 80 | 1010.1 |
| 20260510014539 | 76 | 0 | 0.0 | 0.0 | 0.00 | 0.00 | 0.00 | 80 | 1009.8 |
| 20260510014019 | 76 | 0 | 0.0 | 0.0 | 0.00 | 0.00 | 0.00 | 81 | 1009.7 |
| 20260510013519 | 76 | 0 | 0.0 | 0.0 | 0.00 | 0.00 | 0.00 | 79 | 1009.6 |
| 20260510013036 | 76 | 0 | 0.0 | 0.0 | 0.00 | 0.00 | 0.00 | 79 | 1009.6 |
| 20260510012518 | 76 | 0 | 0.0 | 0.9 | 0.00 | 0.00 | 0.00 | 79 | 1009.6 |
| 20260510012019 | 76 | 0 | 0.0 | 0.9 | 0.00 | 0.00 | 0.00 | 79 | 1009.4 |
| 20260510011601 | 76 | 0 | 0.0 | 0.0 | 0.00 | 0.00 | 0.00 | 80 | 1009.4 |
| 20260510011018 | 76 | 0 | 0.0 | 0.0 | 0.00 | 0.00 | 0.00 | 80 | 1009.4 |
| 20260510010518 | 76 | 0 | 0.0 | 0.0 | 0.00 | 0.00 | 0.00 | 79 | 1009.3 |
| 20260510010051 | 76 | 0 | 0.0 | 0.9 | 0.00 | 0.00 | 0.00 | 80 | 1009.1 |
| 20260510005519 | 76 | 0 | 0.0 | 0.9 | 0.00 | 0.00 | 0.00 | 79 | 1008.9 |
| 20260510005020 | 76 | 0 | 0.0 | 0.9 | 0.00 | 0.00 | 0.00 | 77 | 1008.8 |
| 20260510004535 | 77 | 334 | 0.0 | 0.0 | 0.00 | 0.00 | 0.00 | 77 | 1008.9 |
| 20260510004022 | 77 | 0 | 0.0 | 0.9 | 0.00 | 0.00 | 0.00 | 76 | 1008.8 |
| 20260510003520 | 77 | 0 | 0.0 | 0.9 | 0.00 | 0.00 | 0.00 | 75 | 1008.9 |
| 20260510003039 | 78 | 329 | 0.0 | 5.2 | 0.00 | 0.00 | 0.00 | 75 | 1009.2 |
| 20260510002519 | 79 | 0 | 0.0 | 5.2 | 0.00 | 0.00 | 0.00 | 70 | 1009.0 |
| 20260510002019 | 82 | 283 | 1.7 | 5.2 | 0.00 | 0.00 | 0.00 | 67 | 1009.2 |
| 20260510001536 | 84 | 141 | 1.7 | 3.5 | 0.00 | 0.00 | 0.00 | 66 | 1009.1 |
| 20260510001019 | 85 | 253 | 0.0 | 1.7 | 0.00 | 0.00 | 0.00 | 63 | 1009.0 |
| 20260510000520 | 85 | 0 | 0.0 | 0.9 | 0.00 | 0.00 | 0.00 | 63 | 1008.8 |
| 20260510000041 | 85 | 0 | 0.0 | 0.9 | 0.00 | 0.00 | 0.00 | 65 | 1008.7 |
| 20260509235519 | 86 | 0 | 0.0 | 0.9 | 0.00 | 0.00 | 0.00 | 64 | 1008.9 |
| 20260509235019 | 86 | 0 | 0.0 | 0.0 | 0.00 | 0.00 | 0.00 | 64 | 1008.3 |
| 20260509234553 | 86 | 0 | 0.0 | 0.0 | 0.00 | 0.00 | 0.00 | 63 | 1008.3 |
| 20260509234020 | 87 | 0 | 0.0 | 0.0 | 0.00 | 0.00 | 0.00 | 62 | 1008.5 |
| 20260509233519 | 87 | 0 | 0.0 | 0.9 | 0.00 | 0.00 | 0.00 | 61 | 1008.5 |
| 20260509233036 | 87 | 0 | 0.0 | 0.9 | 0.00 | 0.00 | 0.00 | 60 | 1008.3 |
| 20260509232519 | 87 | 0 | 0.0 | 0.9 | 0.00 | 0.00 | 0.00 | 61 | 1008.3 |
| 20260509232019 | 87 | 0 | 0.0 | 0.9 | 0.00 | 0.00 | 0.00 | 60 | 1008.2 |
| 20260509231540 | 88 | 0 | 0.0 | 0.9 | 0.00 | 0.00 | 0.00 | 59 | 1008.3 |
| 20260509231019 | 88 | 0 | 0.0 | 0.9 | 0.00 | 0.00 | 0.00 | 58 | 1008.4 |
| 20260509230519 | 88 | 0 | 0.0 | 0.9 | 0.00 | 0.00 | 0.00 | 59 | 1008.3 |
| 20260509230037 | 89 | 0 | 0.0 | 0.9 | 0.00 | 0.00 | 0.00 | 58 | 1008.3 |
| 20260509225520 | 89 | 252 | 0.0 | 0.0 | 0.00 | 0.00 | 0.00 | 58 | 1008.1 |
| 20260509225018 | 89 | 0 | 0.0 | 0.9 | 0.00 | 0.00 | 0.00 | 57 | 1008.1 |
| 20260509224535 | 90 | 0 | 0.0 | 0.9 | 0.00 | 0.00 | 0.00 | 56 | 1008.1 |
| 20260509224021 | 90 | 0 | 0.0 | 0.9 | 0.00 | 0.00 | 0.00 | 56 | 1008.0 |
| 20260509223520 | 91 | 47 | 0.0 | 0.9 | 0.00 | 0.00 | 0.00 | 54 | 1008.0 |
| 20260509223036 | 91 | 260 | 0.0 | 0.9 | 0.00 | 0.00 | 0.00 | 54 | 1007.9 |
| 20260509222519 | 92 | 0 | 0.0 | 0.9 | 0.00 | 0.00 | 0.00 | 55 | 1007.8 |
| 20260509222019 | 91 | 0 | 0.0 | 0.9 | 0.00 | 0.00 | 0.00 | 53 | 1007.8 |
| 20260509221558 | 91 | 0 | 0.0 | 0.9 | 0.00 | 0.00 | 0.00 | 54 | 1007.8 |
| 20260509221018 | 91 | 0 | 0.0 | 0.9 | 0.00 | 0.00 | 0.00 | 56 | 1007.8 |
| 20260509220519 | 91 | 0 | 0.0 | 0.9 | 0.00 | 0.00 | 0.00 | 54 | 1007.9 |
| 20260509220043 | 92 | 0 | 0.0 | 0.9 | 0.00 | 0.00 | 0.00 | 56 | 1007.8 |
| 20260509215519 | 91 | 0 | 0.0 | 0.9 | 0.00 | 0.00 | 0.00 | 57 | 1007.8 |
| 20260509215019 | 91 | 262 | 0.0 | 0.9 | 0.00 | 0.00 | 0.00 | 55 | 1007.9 |
| 20260509214539 | 91 | 0 | 0.0 | 0.9 | 0.00 | 0.00 | 0.00 | 54 | 1008.0 |
| 20260509214018 | 91 | 264 | 0.0 | 0.9 | 0.00 | 0.00 | 0.00 | 55 | 1007.9 |
| 20260509213518 | 91 | 0 | 0.0 | 1.7 | 0.00 | 0.00 | 0.00 | 55 | 1007.9 |
| 20260509213035 | 91 | 247 | 0.0 | 1.7 | 0.00 | 0.00 | 0.00 | 55 | 1008.0 |
| 20260509212526 | 91 | 271 | 0.9 | 1.7 | 0.00 | 0.00 | 0.00 | 55 | 1008.0 |
| 20260509212019 | 91 | 18 | 0.0 | 0.9 | 0.00 | 0.00 | 0.00 | 55 | 1008.0 |
| 20260509211533 | 91 | 262 | 0.0 | 1.7 | 0.00 | 0.00 | 0.00 | 55 | 1008.1 |
| 20260509211019 | 91 | 256 | 0.0 | 1.7 | 0.00 | 0.00 | 0.00 | 56 | 1008.1 |
| 20260509210520 | 91 | 255 | 0.0 | 1.7 | 0.00 | 0.00 | 0.00 | 56 | 1008.2 |
| 20260509210034 | 91 | 298 | 0.0 | 1.7 | 0.00 | 0.00 | 0.00 | 55 | 1008.3 |
| 20260509205518 | 90 | 0 | 0.0 | 1.7 | 0.00 | 0.00 | 0.00 | 54 | 1008.3 |
| 20260509205018 | 90 | 77 | 0.9 | 1.7 | 0.00 | 0.00 | 0.00 | 52 | 1008.4 |
| 20260509204535 | 90 | 307 | 0.0 | 0.9 | 0.00 | 0.00 | 0.00 | 52 | 1008.3 |
| 20260509204019 | 91 | 0 | 0.0 | 1.7 | 0.00 | 0.00 | 0.00 | 54 | 1008.5 |
| 20260509203518 | 91 | 270 | 0.0 | 1.7 | 0.00 | 0.00 | 0.00 | 54 | 1008.5 |
| 20260509203041 | 91 | 0 | 0.0 | 1.7 | 0.00 | 0.00 | 0.00 | 53 | 1008.6 |
| 20260509202518 | 91 | 28 | 0.0 | 0.9 | 0.00 | 0.00 | 0.00 | 52 | 1008.6 |
| 20260509202019 | 91 | 274 | 0.0 | 1.7 | 0.00 | 0.00 | 0.00 | 54 | 1008.6 |
| 20260509201535 | 91 | 289 | 0.0 | 1.7 | 0.00 | 0.00 | 0.00 | 56 | 1008.8 |
| 20260509201021 | 91 | 258 | 0.0 | 1.7 | 0.00 | 0.00 | 0.00 | 56 | 1008.7 |
| 20260509200518 | 91 | 357 | 0.0 | 1.7 | 0.00 | 0.00 | 0.00 | 58 | 1008.8 |
| 20260509200043 | 90 | 0 | 0.0 | 1.7 | 0.00 | 0.00 | 0.00 | 58 | 1008.9 |
| 20260509195520 | 90 | 255 | 0.0 | 1.7 | 0.00 | 0.01 | 0.00 | 56 | 1008.9 |
| 20260509195018 | 90 | 0 | 0.0 | 1.7 | 0.00 | 0.01 | 0.00 | 57 | 1009.0 |
| 20260509194533 | 90 | 0 | 0.0 | 1.7 | 0.00 | 0.01 | 0.00 | 58 | 1009.0 |
| 20260509194021 | 90 | 0 | 0.0 | 1.7 | 0.00 | 0.01 | 0.00 | 58 | 1009.0 |
| 20260509193521 | 89 | 0 | 0.0 | 2.6 | 0.00 | 0.01 | 0.00 | 59 | 1009.0 |
| 20260509193039 | 89 | 247 | 0.9 | 2.6 | 0.00 | 0.01 | 0.00 | 59 | 1009.1 |
| 20260509192519 | 89 | 248 | 0.0 | 2.6 | 0.00 | 0.01 | 0.00 | 60 | 1009.0 |
| 20260509192032 | 89 | 0 | 0.0 | 1.7 | 0.00 | 0.01 | 0.00 | 60 | 1009.1 |
| 20260509191539 | 89 | 0 | 0.0 | 1.7 | 0.00 | 0.01 | 0.00 | 63 | 1009.1 |
| 20260509191019 | 89 | 0 | 0.0 | 2.6 | 0.00 | 0.01 | 0.00 | 60 | 1009.2 |
| 20260509190521 | 89 | 217 | 0.0 | 2.6 | 0.00 | 0.01 | 0.00 | 65 | 1009.1 |
| 20260509190044 | 89 | 0 | 0.0 | 1.7 | 0.00 | 0.01 | 0.00 | 64 | 1009.2 |
| 20260509185523 | 89 | 18 | 0.0 | 3.5 | 0.00 | 0.02 | 0.00 | 65 | 1009.2 |
| 20260509185019 | 90 | 81 | 0.9 | 3.5 | 0.00 | 0.02 | 0.00 | 62 | 1009.2 |
| 20260509184540 | 89 | 0 | 0.0 | 1.7 | 0.00 | 0.02 | 0.00 | 63 | 1009.4 |
| 20260509184019 | 89 | 0 | 0.0 | 1.7 | 0.00 | 0.02 | 0.00 | 63 | 1009.5 |
| 20260509183519 | 89 | 251 | 0.0 | 0.9 | 0.00 | 0.02 | 0.00 | 64 | 1009.6 |
| 20260509183041 | 89 | 247 | 0.0 | 0.9 | 0.00 | 0.02 | 0.00 | 65 | 1009.8 |
| 20260509182519 | 89 | 52 | 0.0 | 0.9 | 0.00 | 0.02 | 0.00 | 66 | 1009.8 |
| 20260509182019 | 89 | 0 | 0.0 | 1.7 | 0.00 | 0.02 | 0.00 | 67 | 1009.9 |
| 20260509181539 | 89 | 0 | 0.0 | 1.7 | 0.00 | 0.02 | 0.00 | 69 | 1010.0 |
| 20260509181023 | 88 | 0 | 0.0 | 0.9 | 0.00 | 0.02 | 0.00 | 69 | 1010.1 |
| 20260509180519 | 87 | 0 | 0.0 | 0.9 | 0.00 | 0.02 | 0.00 | 71 | 1010.3 |
| 20260509180042 | 87 | 38 | 0.0 | 0.9 | 0.00 | 0.02 | 0.00 | 69 | 1010.5 |
| 20260509175521 | 88 | 0 | 0.0 | 0.9 | 0.00 | 0.03 | 0.00 | 70 | 1010.5 |
| 20260509175023 | 88 | 293 | 0.0 | 0.9 | 0.00 | 0.03 | 0.00 | 72 | 1010.4 |
| 20260509174540 | 87 | 0 | 0.0 | 0.9 | 0.00 | 0.03 | 0.00 | 73 | 1010.4 |
| 20260509174020 | 86 | 0 | 0.0 | 1.7 | 0.00 | 0.03 | 0.00 | 76 | 1010.5 |
| 20260509173520 | 85 | 0 | 0.0 | 2.6 | 0.00 | 0.03 | 0.00 | 76 | 1010.7 |
| 20260509173051 | 85 | 0 | 0.0 | 2.6 | 0.00 | 0.03 | 0.00 | 75 | 1010.8 |
| 20260509172519 | 84 | 274 | 0.0 | 1.7 | 0.00 | 0.03 | 0.00 | 77 | 1010.9 |
| 20260509172019 | 84 | 0 | 0.0 | 0.9 | 0.00 | 0.03 | 0.00 | 78 | 1011.0 |
| 20260509171546 | 83 | 0 | 0.0 | 0.9 | 0.00 | 0.03 | 0.00 | 80 | 1011.0 |
| 20260509171018 | 82 | 0 | 0.0 | 0.9 | 0.00 | 0.03 | 0.00 | 81 | 1011.1 |
| 20260509170519 | 82 | 0 | 0.0 | 0.0 | 0.00 | 0.03 | 0.00 | 84 | 1011.0 |
| 20260509170042 | 82 | 0 | 0.0 | 0.0 | 0.00 | 0.03 | 0.00 | 83 | 1011.0 |
| 20260509165521 | 81 | 0 | 0.0 | 0.0 | 0.00 | 0.03 | 0.00 | 85 | 1011.2 |
| 20260509165018 | 81 | 0 | 0.0 | 0.0 | 0.00 | 0.03 | 0.00 | 84 | 1011.2 |
| 20260509164540 | 81 | 0 | 0.0 | 0.0 | 0.00 | 0.03 | 0.00 | 84 | 1011.2 |
| 20260509164023 | 81 | 0 | 0.0 | 0.0 | 0.00 | 0.03 | 0.00 | 83 | 1011.2 |
| 20260509163518 | 81 | 0 | 0.0 | 0.0 | 0.00 | 0.03 | 0.00 | 83 | 1011.2 |
| 20260509163046 | 82 | 0 | 0.0 | 0.0 | 0.00 | 0.03 | 0.00 | 84 | 1011.0 |
| 20260509162519 | 81 | 0 | 0.0 | 0.0 | 0.00 | 0.03 | 0.00 | 84 | 1011.0 |
| 20260509162022 | 81 | 0 | 0.0 | 0.0 | 0.00 | 0.03 | 0.00 | 85 | 1010.9 |
| 20260509161537 | 81 | 0 | 0.0 | 0.0 | 0.00 | 0.03 | 0.00 | 87 | 1011.0 |
| 20260509161019 | 80 | 0 | 0.0 | 0.0 | 0.00 | 0.03 | 0.00 | 86 | 1010.9 |
| 20260509160519 | 80 | 0 | 0.0 | 0.0 | 0.00 | 0.03 | 0.00 | 86 | 1011.0 |
| 20260509160036 | 80 | 0 | 0.0 | 0.0 | 0.00 | 0.03 | 0.00 | 86 | 1011.1 |
| 20260509155518 | 80 | 0 | 0.0 | 0.0 | 0.00 | 0.03 | 0.00 | 87 | 1011.1 |
| 20260509155021 | 80 | 0 | 0.0 | 0.9 | 0.00 | 0.03 | 0.00 | 87 | 1011.1 |
| 20260509154535 | 80 | 0 | 0.0 | 0.9 | 0.00 | 0.03 | 0.00 | 87 | 1010.9 |
| 20260509154019 | 80 | 0 | 0.0 | 0.0 | 0.00 | 0.03 | 0.00 | 87 | 1010.9 |
| 20260509153518 | 79 | 0 | 0.0 | 0.0 | 0.00 | 0.03 | 0.00 | 89 | 1010.8 |
| 20260509153043 | 79 | 0 | 0.0 | 0.0 | 0.00 | 0.03 | 0.00 | 89 | 1010.7 |
| 20260509152518 | 79 | 0 | 0.0 | 0.0 | 0.00 | 0.03 | 0.00 | 88 | 1010.8 |
| 20260509152019 | 79 | 0 | 0.0 | 0.0 | 0.00 | 0.03 | 0.00 | 89 | 1010.7 |
| 20260509151537 | 78 | 0 | 0.0 | 0.9 | 0.00 | 0.03 | 0.00 | 89 | 1010.7 |
| 20260509151018 | 78 | 0 | 0.0 | 0.9 | 0.00 | 0.03 | 0.00 | 90 | 1010.8 |
| 20260509150519 | 78 | 0 | 0.0 | 0.9 | 0.00 | 0.03 | 0.00 | 91 | 1010.7 |
| 20260509150039 | 78 | 0 | 0.0 | 0.0 | 0.00 | 0.03 | 0.00 | 92 | 1010.9 |
| 20260509145519 | 78 | 0 | 0.0 | 0.9 | 0.00 | 0.03 | 0.00 | 91 | 1010.8 |
| 20260509145020 | 78 | 0 | 0.0 | 0.9 | 0.00 | 0.03 | 0.00 | 92 | 1010.9 |
| 20260509144544 | 77 | 0 | 0.0 | 0.9 | 0.00 | 0.03 | 0.00 | 92 | 1010.6 |
| 20260509144019 | 77 | 0 | 0.0 | 0.0 | 0.00 | 0.03 | 0.00 | 93 | 1010.3 |
| 20260509143520 | 77 | 0 | 0.0 | 0.0 | 0.00 | 0.03 | 0.00 | 93 | 1010.4 |
| 20260509143037 | 77 | 0 | 0.0 | 0.9 | 0.00 | 0.03 | 0.00 | 93 | 1010.3 |
| 20260509142518 | 77 | 0 | 0.0 | 0.9 | 0.00 | 0.03 | 0.00 | 93 | 1010.1 |
| 20260509142026 | 77 | 0 | 0.0 | 0.0 | 0.00 | 0.03 | 0.00 | 93 | 1010.2 |
| 20260509141544 | 77 | 0 | 0.0 | 0.0 | 0.00 | 0.03 | 0.00 | 93 | 1010.1 |
| 20260509141021 | 77 | 0 | 0.0 | 0.0 | 0.00 | 0.03 | 0.00 | 93 | 1009.9 |
| 20260509140518 | 77 | 0 | 0.0 | 0.0 | 0.00 | 0.03 | 0.00 | 93 | 1009.8 |
| 20260509140036 | 76 | 0 | 0.0 | 0.0 | 0.00 | 0.03 | 0.00 | 93 | 1009.8 |
| 20260509135520 | 76 | 0 | 0.0 | 0.9 | 0.00 | 0.03 | 0.00 | 94 | 1010.1 |
| 20260509135020 | 76 | 0 | 0.0 | 0.9 | 0.00 | 0.03 | 0.00 | 94 | 1010.1 |
| 20260509134550 | 76 | 0 | 0.0 | 0.9 | 0.00 | 0.03 | 0.00 | 94 | 1010.3 |
| 20260509134021 | 76 | 0 | 0.0 | 0.0 | 0.00 | 0.03 | 0.00 | 94 | 1010.5 |
| 20260509133519 | 76 | 0 | 0.0 | 0.0 | 0.00 | 0.03 | 0.00 | 94 | 1010.6 |
| 20260509133038 | 76 | 0 | 0.0 | 0.0 | 0.00 | 0.03 | 0.00 | 95 | 1010.9 |
| 20260509132519 | 76 | 0 | 0.0 | 0.0 | 0.00 | 0.03 | 0.00 | 95 | 1011.0 |
| 20260509132018 | 76 | 0 | 0.0 | 0.0 | 0.00 | 0.03 | 0.00 | 95 | 1011.2 |
| 20260509131551 | 76 | 0 | 0.0 | 0.0 | 0.00 | 0.03 | 0.00 | 95 | 1011.2 |
| 20260509131018 | 76 | 0 | 0.0 | 0.0 | 0.00 | 0.03 | 0.00 | 95 | 1011.1 |
| 20260509130522 | 75 | 0 | 0.0 | 0.9 | 0.00 | 0.03 | 0.00 | 96 | 1011.0 |
| 20260509130046 | 75 | 0 | 0.0 | 0.9 | 0.00 | 0.03 | 0.00 | 96 | 1010.8 |
| 20260509125518 | 75 | 0 | 0.0 | 0.9 | 0.00 | 0.03 | 0.00 | 96 | 1010.7 |
| 20260509125022 | 75 | 0 | 0.0 | 0.9 | 0.00 | 0.03 | 0.00 | 96 | 1010.7 |
| 20260509124541 | 75 | 0 | 0.0 | 0.0 | 0.00 | 0.03 | 0.00 | 96 | 1010.8 |
| 20260509124018 | 75 | 0 | 0.0 | 0.0 | 0.00 | 0.03 | 0.00 | 96 | 1010.9 |
| 20260509123518 | 74 | 0 | 0.0 | 0.9 | 0.00 | 0.03 | 0.00 | 96 | 1010.8 |
| 20260509123045 | 74 | 0 | 0.0 | 0.9 | 0.00 | 0.03 | 0.00 | 96 | 1010.8 |
| 20260509122549 | 74 | 0 | 0.0 | 0.0 | 0.00 | 0.03 | 0.00 | 96 | 1010.8 |
| 20260509122019 | 74 | 0 | 0.0 | 0.0 | 0.00 | 0.03 | 0.00 | 96 | 1010.8 |
| 20260509121537 | 74 | 0 | 0.0 | 0.0 | 0.00 | 0.03 | 0.00 | 96 | 1010.9 |
| 20260509121019 | 74 | 0 | 0.0 | 0.0 | 0.00 | 0.03 | 0.00 | 96 | 1010.8 |
| 20260509120521 | 74 | 0 | 0.0 | 0.0 | 0.00 | 0.03 | 0.00 | 96 | 1010.7 |
| 20260509120035 | 74 | 0 | 0.0 | 0.0 | 0.00 | 0.03 | 0.00 | 96 | 1010.5 |
| 20260509115518 | 74 | 0 | 0.0 | 0.0 | 0.00 | 0.03 | 0.00 | 96 | 1010.2 |
| 20260509115021 | 74 | 0 | 0.0 | 0.0 | 0.00 | 0.03 | 0.00 | 96 | 1010.3 |
| 20260509114535 | 74 | 0 | 0.0 | 0.0 | 0.00 | 0.03 | 0.00 | 96 | 1010.3 |
| 20260509114019 | 74 | 0 | 0.0 | 0.0 | 0.00 | 0.03 | 0.00 | 96 | 1010.3 |
| 20260509113521 | 74 | 0 | 0.0 | 0.0 | 0.00 | 0.03 | 0.00 | 96 | 1010.4 |
| 20260509113035 | 74 | 0 | 0.0 | 0.0 | 0.00 | 0.03 | 0.00 | 96 | 1010.6 |
| 20260509112518 | 74 | 0 | 0.0 | 0.0 | 0.00 | 0.03 | 0.00 | 96 | 1010.8 |
| 20260509112018 | 74 | 0 | 0.0 | 0.0 | 0.00 | 0.03 | 0.00 | 96 | 1010.5 |
| 20260509111535 | 74 | 0 | 0.0 | 0.0 | 0.00 | 0.03 | 0.00 | 96 | 1010.3 |
| 20260509111020 | 74 | 0 | 0.0 | 0.0 | 0.00 | 0.03 | 0.00 | 96 | 1010.2 |
| 20260509110519 | 74 | 0 | 0.0 | 0.0 | 0.00 | 0.03 | 0.00 | 96 | 1010.1 |
| 20260509110043 | 74 | 0 | 0.0 | 0.0 | 0.00 | 0.03 | 0.00 | 96 | 1010.0 |
| 20260509105519 | 74 | 0 | 0.0 | 0.0 | 0.00 | 0.03 | 0.00 | 96 | 1009.9 |
| 20260509105022 | 74 | 0 | 0.0 | 0.0 | 0.00 | 0.03 | 0.00 | 96 | 1009.9 |